User: anonymous   Login
Location: Central Coast
(33.3208°S, 151.2336°E)
Time: 17:08:50
(UTC+10:00)
Language:

CUTE-I - Orbit

View from above orbital plane
View from above orbital plane
View from above satellite
View from above satellite

Ground track
Ground track

The orbit data is extracted from the following two-line orbital elements,

1 27844U 03031E   18144.52927798  .00000057  00000-0  45597-4 0  9995
2 27844 098.6869 153.5345 0011055 081.5302 278.7129 14.22113638772799
Epoch (UTC): 24 May 2018 12:42:09
Eccentricity: 0.0011055
inclination: 98.6869°
perigee height: 810 km
apogee height: 826 km
right ascension of ascending node: 153.5345°
argument of perigee: 81.5302°
revolutions per day: 14.22113638
mean anomaly at epoch: 278.7129°
orbit number at epoch: 77279

The dashed part of the orbit path shows where the satellite is in the earth's shadow,  

DLR